Location: Seven Kings
(51.5667°N, 0.1000°E)
Time: 12:18:06
(UTC+00:00)

Cosmos 1606 Rocket - Pass Details

Date: 29 October 2020
Orbit: 604 x 631 km, 82.5° (Epoch: 24 November)

Event Time Altitude Azimuth Distance (km) Brightness Sun altitude
Rises 17:40:36 0° 193° (SSW) 2,871 7.3 -10.3°
Reaches altitude 10° 17:42:48 10° 195° (SSW) 1,975 6.5 -10.7°
Maximum altitude 17:47:11 76° 281° (WNW) 646 3.8 -11.3°
Drops below altitude 10° 17:51:38 10° 8° (N) 2,009 6.0 -12.0°
Sets 17:53:54 0° 10° (N) 2,925 6.9 -12.4°
